STARLINK-32711

Last updated on Wed Jan 29 2025 00:02:04 GMT+0000 (Coordinated Universal Time)

1 62435U 24251D 25028.50317743 .00000180 00000+0 11296-4 0 9992 2 62435 53.1601 66.5154 0001325 73.8138 286.3017 15.49312311 5772
UTC large
Height (km)
Speed (km/s)
/
Latitude / Longitude
Inclination (degrees)
Orbital Period (minutes)
Azimuth
Elevation
Range (km)
Doppler Factor

Next 0 passes for location: London (51.5072 / 0.1276)

Sorry there are no passes over London.